Lafayette, Louisiana, United States (70501)
Lat: 30.22N, Lon: 92.02W
Wx Zone: LAZ044
Local Info
Past Weather Observations for Today

NOTE: This archive is for the closest National Weather Service station to Lafayette. Information may differ from the station used for current weather conditions.

Click here for Long-term Archive

Time Weather Temperature Dewpoint Humidity Pressure Winds Precip Visibility
21:53
Clear
55°F / 13°C 52°F / 11°C 88% 30.12 in
(1020 mb)
N 3.5 mph
(N 6 kph)
- 10SM
20:53
Clear
57°F / 14°C 55°F / 13°C 94% 30.12 in
(1020 mb)
Calm - 10SM
19:53
Clear
61°F / 16°C 57°F / 14°C 88% 30.12 in
(1020 mb)
Calm - 10SM
18:53
Clear
64°F / 18°C 52°F / 11°C 64% 30.09 in
(1019 mb)
Calm - 10SM
17:53
Clear
66°F / 19°C 48°F / 9°C 52% 30.09 in
(1019 mb)
NE 3.5 mph
(NE 6 kph)
- 10SM
16:53
Clear
73°F / 23°C 46°F / 8°C 38% 30.09 in
(1019 mb)
NNE 8.1 mph
(NNE 13 kph)
- 10SM
15:53
Clear
36°F / 2 1000 4°C 45°F / 7°C 34% 30.06 in
(1018 mb)
N 8.1 mph
(N 13 kph)
- 10SM
14:53
Clear
77°F / 25°C 45°F / 7°C 32% 30.06 in
(1018 mb)
NNE 8.1 mph
(NNE 13 kph)
- 10SM
13:53
Clear
75°F / 24°C 48°F / 9°C 39% 30.06 in
(1018 mb)
NNE 9.2 mph
(NNE 15 kph)
- 10SM
12:53
Clear
75°F / 24°C 48°F / 9°C 39% 30.09 in
(1019 mb)
NE 8.1 mph
(NE 13 kph)
- 10SM
11:53
Clear
73°F / 23°C 50°F / 10°C 44% 30.12 in
(1020 mb)
N 8.1 mph
(N 13 kph)
- 10SM
10:53
Clear
70°F / 21°C 50°F / 10°C 50% 30.15 in
(1021 mb)
NE 9.2 mph
(NE 15 kph)
- 10SM
09:53
Clear
66°F / 19°C 52°F / 11°C 60% 30.15 in
(1021 mb)
N 4.6 mph
(N 7 kph)
- 10SM
08:53
Clea 1000 R
Clear
61°F / 16°C 54°F / 12°C 77% 30.15 in
(1021 mb)
NE 3.5 mph
(NE 6 kph)
- 10SM
07:53
Clear
55°F / 13°C 52°F / 11°C 88% 30.15 in
(1021 mb)
NNE 6.9 mph
(NNE 11 kph)
- 10SM
06:53
Clear
52°F / 11°C 48°F / 9°C 88% 30.12 in
(1020 mb)
N 4.6 mph
(N 7 kph)
- 10SM
05:53
Clear
50°F / 10°C 48°F / 9°C 94% 30.12 in
(1020 mb)
N 5.8 mph
(N 9 kph)
- 10SM
04:53
Clear
50°F / 10°C 48°F / 9°C 94% 30.12 in
(1020 mb)
N 5.8 mph
(N 9 kph)
- 10SM
03:53
Clear
52°F / 11°C 48°F / 9°C 88% 30.09 in
(1019 mb)
NNE 3.5 mph
(NNE 6 kph)
- 10SM
02:53
Clear
52°F / 11°C 50°F / 10°C 94% 30.09 in
(1019 mb)
Calm - 10SM
01:53
Clear
52°F / 11°C 52°F / 11°C 100% 30.09 in
(1019 mb)
NE 3.5 mph
(NE 6 kph)
- 10SM
00:53
Clear
54°F / 12°C 52°F / 11°C 94% 30.09 in
(1019 mb)
NE 3.5 mph
(NE 6 kph)
- 10SM
Time Weather Temperature Dewpoint Humidity Pressure Winds Precip Visibility


Weather for websites

WeatherForYou.com, LLC is not responsible for any damages or problems caused by this service. Current weather conditions are obtained from the closest station including government and personal stations which may have varying degrees of accuracy. Weather forecasts are derived from the NOAA NDFD. Like all things, this site belongs to Jesus Christ... He just trusts me to maintain it. If you have any questions or comments email webmaster@weatherforyou.com

Copyright © 2014, WeatherForYou.com LLC. All rights reserved.